Location: ?????
(31.8092°N, 35.2590°E)
Time: 04:10:29
(UTC+00:00)

Cosmos 2360 Rocket - Pass Details

Date: 22 October 2021
Orbit: 832 x 846 km, 71.0° (Epoch: 07 December)

Event Time Altitude Azimuth Distance (km) Brightness Sun altitude
Rises 02:14:18 0° 349° (N) 3,409 5.2 -20.4°
Reaches altitude 10° 02:16:57 10° 357° (N) 2,471 4.6 -19.9°
Maximum altitude 02:22:11 38° 65° (ENE) 1,278 3.6 -18.8°
Drops below altitude 10° 02:27:23 10° 132° (SE) 2,458 5.3 -17.7°
Sets 02:30:00 0° 140° (SE) 3,388 6.0 -17.1°
